Weather History for Maple Lake, MN

Change the Weather History Date:

Wednesday, October 19, 2011

  Actual Average (KSTC) Record (KSTC)
Temperature  
Mean Temperature 41 °F 45 °F  
Max Temperature 45 °F 55 °F 85 °F (2000)
Min Temperature 37 °F 34 °F 9 °F (1972)
Degree Days  
Heating Degree Days 24 20  
Month to date heating degree days 321  
Since 1 July heating degree days 607  
Cooling Degree Days 0 0  
Month to date cooling degree days 0  
Year to date cooling degree days 463  
Moisture  
Dew Point 31 °F    
Average Humidity 71    
Maximum Humidity 78    
Minimum Humidity 60    
Precipitation  
Precipitation 0.00 in 0.08 in 1.65 in (1934)
Month to date precipitation 1.72  
Year to date precipitation 24.76  
Snow  
Snow 0.00 in 0.00 in 3.50 in (1916)
Month to date snowfall 0.2  
Since 1 July snowfall 0.2  
Since 1 September snowfall 0.2  
Snow Depth -    
Sea Level Pressure  
Sea Level Pressure 30.10 in    
Wind  
Wind Speed 9 mph (North)    
Max Wind Speed 14 mph    
Max Gust Speed 18 mph    
Visibility 10 miles    
Events      
T = Trace of Precipitation, MM = Missing Value Source: NWS Daily Summary

Daily Weather History Graph

Daily Weather History Graph

Search for Another Location

Airport:

Trip Planner

Search our weather history database for the weather conditions in past years. The results will help you decide how hot, cold, wet, or windy it might be!

Date:

Astronomy

Oct. 19, 2011 Rise Set
Actual Time 7:36 AM CDT 6:24 PM CDT
Civil Twilight 7:06 AM CDT 6:54 PM CDT
Nautical Twilight 6:32 AM CDT 7:28 PM CDT
Astronomical Twilight 5:58 AM CDT 8:02 PM CDT
Moon No Moon Rise 2:15 PM CDT (10/19)
Length of Visible Light 11h 47m
Length of Day
10h 47m
Waning Gibbous, 54% of the Moon is Illuminated
Oct 19
Waning Gibbous
Oct 19
Last Quarter
Oct 26
New
Nov 2
First Quarter
Nov 10
Full

Hourly Weather History & Observations

Time (CDT) Temp. Windchill Dew Point Humidity Pressure Visibility Wind Dir Wind Speed Gust Speed Precip Events Conditions
12:12 AM 37.9 °F 30.9 °F 29.3 °F 71% 30.07 in 10.0 mi NNW 10.4 mph - N/A   Overcast
12:32 AM 38.3 °F 31.9 °F 29.3 °F 70% 30.07 in 10.0 mi NNW 9.2 mph - N/A   Overcast
12:52 AM 38.3 °F 31.4 °F 29.3 °F 70% 30.07 in 10.0 mi NNW 10.4 mph - N/A   Overcast
1:12 AM 38.3 °F 31.9 °F 29.3 °F 70% 30.07 in 10.0 mi NNW 9.2 mph - N/A   Overcast
1:31 AM 38.3 °F 30.9 °F 29.5 °F 71% 30.07 in 10.0 mi NNW 11.5 mph - N/A   Overcast
1:52 AM 38.3 °F 31.9 °F 29.8 °F 72% 30.07 in 10.0 mi North 9.2 mph - N/A   Overcast
2:12 AM 38.1 °F 31.7 °F 30.2 °F 73% 30.07 in 10.0 mi NNW 9.2 mph - N/A   Overcast
2:52 AM 38.1 °F 32.9 °F 30.2 °F 73% 30.07 in 10.0 mi NNW 6.9 mph - N/A   Overcast
3:12 AM 37.9 °F 32.1 °F 30.2 °F 74% 30.07 in 10.0 mi NNW 8.1 mph - N/A   Overcast
3:32 AM 37.8 °F 31.8 °F 30.0 °F 74% 30.07 in 10.0 mi NNW 8.1 mph - N/A   Overcast
3:52 AM 37.8 °F 31.3 °F 29.7 °F 73% 30.07 in 10.0 mi NNW 9.2 mph - N/A   Overcast
4:12 AM 37.8 °F 31.3 °F 29.7 °F 73% 30.07 in 10.0 mi NNW 9.2 mph - N/A   Overcast
4:33 AM 37.8 °F 31.3 °F 29.7 °F 73% 30.07 in 10.0 mi NNW 9.2 mph - N/A   Overcast
4:52 AM 37.6 °F 30.5 °F 29.8 °F 74% 30.08 in 10.0 mi NNW 10.4 mph - N/A   Overcast
5:12 AM 37.6 °F 31.0 °F 30.0 °F 74% 30.08 in 10.0 mi NNW 9.2 mph - N/A   Overcast
5:32 AM 37.8 °F 32.5 °F 30.2 °F 74% 30.08 in 10.0 mi North 6.9 mph - N/A   Overcast
5:52 AM 37.8 °F 31.8 °F 30.7 °F 76% 30.09 in 10.0 mi North 8.1 mph - N/A   Overcast
6:12 AM 37.6 °F 32.3 °F 30.7 °F 76% 30.10 in 10.0 mi NNW 6.9 mph - N/A   Overcast
6:32 AM 37.8 °F 31.3 °F 30.7 °F 76% 30.10 in 10.0 mi North 9.2 mph - N/A   Overcast
6:52 AM 37.8 °F 30.7 °F 30.7 °F 76% 30.11 in 10.0 mi North 10.4 mph - N/A   Overcast
7:12 AM 37.8 °F 31.8 °F 31.1 °F 77% 30.11 in 10.0 mi North 8.1 mph - N/A   Overcast
7:32 AM 37.8 °F 32.5 °F 31.1 °F 77% 30.11 in 10.0 mi North 6.9 mph - N/A   Overcast
7:52 AM 37.8 °F 32.5 °F 31.5 °F 78% 30.11 in 10.0 mi North 6.9 mph - N/A   Overcast
8:13 AM 38.1 °F 30.7 °F 31.6 °F 77% 30.12 in 10.0 mi North 11.5 mph - N/A   Overcast
8:32 AM 38.3 °F 31.4 °F 32.0 °F 78% 30.13 in 10.0 mi North 10.4 mph - N/A   Overcast
9:12 AM 38.8 °F 33.8 °F 32.0 °F 76% 30.14 in 10.0 mi North 6.9 mph - N/A   Overcast
9:32 AM 39.2 °F 33.0 °F 32.0 °F 75% 30.14 in 10.0 mi North 9.2 mph - N/A   Overcast
9:52 AM 39.4 °F 33.2 °F 32.0 °F 75% 30.14 in 10.0 mi NNE 9.2 mph - N/A   Overcast
10:13 AM 39.4 °F 33.8 °F 32.0 °F 75% 30.14 in 10.0 mi North 8.1 mph - N/A   Overcast
10:31 AM 39.4 °F 34.5 °F 32.2 °F 75% 30.14 in 10.0 mi North 6.9 mph - N/A   Overcast
10:52 AM 40.1 °F 33.6 °F 32.4 °F 74% 30.14 in 10.0 mi NE 10.4 mph - N/A   Overcast
11:12 AM 41.5 °F 36.4 °F 33.3 °F 72% 30.14 in 10.0 mi North 8.1 mph - N/A   Overcast
12:12 PM 41.9 °F 38.2 °F 32.9 °F 70% 30.14 in 10.0 mi NNE 5.8 mph - N/A   Overcast
12:52 PM 42.3 °F 36.3 °F 32.9 °F 69% 30.14 in 10.0 mi North 10.4 mph - N/A   Overcast
1:11 PM 42.3 °F 37.3 °F 32.5 °F 68% 30.13 in 10.0 mi NE 8.1 mph - N/A   Overcast
1:32 PM 42.8 °F 37.5 °F 32.9 °F 68% 30.12 in 10.0 mi NE 9.2 mph - N/A   Overcast
1:52 PM 42.8 °F 37.0 °F 32.9 °F 68% 30.12 in 10.0 mi North 10.4 mph - N/A   Overcast
2:12 PM 43.3 °F 37.2 °F 32.9 °F 67% 30.11 in 10.0 mi NNW 11.5 mph - N/A   Overcast
2:32 PM 44.4 °F 39.0 °F 32.9 °F 64% 30.11 in 10.0 mi North 10.4 mph - N/A   Overcast
2:52 PM 43.7 °F 38.1 °F 32.4 °F 64% 30.11 in 10.0 mi North 10.4 mph - N/A   Overcast
3:12 PM 43.7 °F 37.7 °F 32.5 °F 65% 30.10 in 10.0 mi North 11.5 mph - N/A   Overcast
3:32 PM 43.7 °F 38.1 °F 32.0 °F 63% 30.10 in 10.0 mi North 10.4 mph 16.1 mph N/A   Overcast
3:52 PM 45.0 °F 39.3 °F 33.4 °F 64% 30.10 in 10.0 mi North 11.5 mph - N/A   Overcast
4:13 PM 45.5 °F 39.2 °F 32.7 °F 61% 30.10 in 10.0 mi North 13.8 mph 18.4 mph N/A   Mostly Cloudy
4:32 PM 44.6 °F 38.8 °F 32.7 °F 63% 30.09 in 10.0 mi North 11.5 mph - N/A   Mostly Cloudy
4:52 PM 44.6 °F 38.8 °F 32.2 °F 62% 30.09 in 10.0 mi North 11.5 mph - N/A   Mostly Cloudy
5:12 PM 45.1 °F 39.5 °F 32.2 °F 60% 30.09 in 10.0 mi North 11.5 mph 17.3 mph N/A   Scattered Clouds
5:32 PM 44.6 °F 39.2 °F 32.0 °F 61% 30.09 in 10.0 mi North 10.4 mph 16.1 mph N/A   Scattered Clouds
5:52 PM 43.9 °F 39.3 °F 32.0 °F 63% 30.09 in 10.0 mi North 8.1 mph - N/A   Clear
6:12 PM 42.8 °F 38.6 °F 32.0 °F 66% 30.09 in 10.0 mi North 6.9 mph - N/A   Clear
6:32 PM 41.5 °F 37.1 °F 31.5 °F 67% 30.09 in 10.0 mi NNW 6.9 mph - N/A   Scattered Clouds
6:52 PM 40.8 °F 36.9 °F 31.1 °F 68% 30.09 in 10.0 mi NNW 5.8 mph - N/A   Scattered Clouds
7:12 PM 39.9 °F 35.8 °F 31.1 °F 71% 30.09 in 10.0 mi NNW 5.8 mph - N/A   Clear
7:32 PM 39.6 °F 35.4 °F 31.1 °F 72% 30.09 in 10.0 mi NNW 5.8 mph - N/A   Clear
7:52 PM 38.8 °F 33.8 °F 31.1 °F 74% 30.09 in 10.0 mi NNW 6.9 mph - N/A   Clear
8:12 PM 38.5 °F 34.1 °F 31.1 °F 75% 30.09 in 10.0 mi North 5.8 mph - N/A   Clear
8:32 PM 39.2 °F 35.0 °F 31.1 °F 73% 30.09 in 10.0 mi North 5.8 mph - N/A   Clear
9:12 PM 40.3 °F 38.2 °F 31.5 °F 71% 30.09 in 10.0 mi North 3.5 mph - N/A   Overcast
9:32 PM 40.6 °F 36.7 °F 31.8 °F 71% 30.09 in 10.0 mi North 5.8 mph - N/A   Overcast
9:52 PM 41.2 °F 36.0 °F 32.0 °F 70% 30.09 in 10.0 mi North 8.1 mph - N/A   Overcast
10:12 PM 41.9 °F 36.9 °F 32.0 °F 68% 30.09 in 10.0 mi North 8.1 mph - N/A   Overcast
10:32 PM 39.6 °F 36.3 °F 31.8 °F 74% 30.08 in 10.0 mi North 4.6 mph - N/A   Scattered Clouds
10:52 PM 38.7 °F 34.3 °F 31.8 °F 76% 30.08 in 10.0 mi North 5.8 mph - N/A   Clear
11:12 PM 37.4 °F 32.1 °F 31.8 °F 80% 30.07 in 10.0 mi North 6.9 mph - N/A   Clear
11:32 PM 38.1 °F 33.7 °F 31.8 °F 78% 30.07 in 10.0 mi North 5.8 mph - N/A   Clear
11:52 PM 37.0 °F 31.0 °F 31.6 °F 81% 30.06 in 10.0 mi North 8.1 mph - N/A   Clear